[[{"header":{"parameterUnit":"m.s-1","parameterCategory":1,"la1":30.2991,"la2":30.254,"lo1":-89.0895,"lo2":-89.0444,"dy":0.0017,"dx":0.0017,"nx":28,"ny":28,"refTime":"2024-06-15T03:00:00:Z","depth":0,"parameterNumber":2,"parameterNumberName":"U-component_of_WINDS"},"data":[0,0,0,0,0,0,0,0,0,0,0,0,0,0,0,0,0,0,0,0,0,0,0,0,0,0,0,0,0,0,0,0,0,0,0,0,0,0,0,0,0,0,0,0,0,0,0,0,0,0,0,0,0,0,0,0,0,0,-0.8007,-0.8006,0,-0.7962,-0.7961,-0.7961,-0.7921,-0.792,-0.792,-0.792,-0.7874,-0.7873,-0.7872,0,0,0,0,0,0,0,0,0,0,0,0,0,-0.8059,-0.8058,-0.8007,-0.8006,-0.8005,-0.7962,-0.7961,-0.7961,-0.7921,-0.792,-0.792,-0.7919,-0.7874,-0.7873,-0.7872,0,0,0,0,0,0,0,0,0,0,0,0,0,-0.8027,-0.8058,-0.8007,-0.798,-0.7978,-0.7962,-0.7961,-0.7961,-0.7921,-0.792,-0.792,-0.7919,-0.7875,-0.7873,-0.7872,-0.7879,0,0,-0.7869,-0.7868,0,0,0,0,0,0,0,0,-0.8029,-0.8025,-0.7985,-0.7982,-0.7979,-0.7946,-0.7963,-0.7933,-0.7921,-0.7943,-0.792,-0.7919,-0.7899,-0.7895,-0.7889,-0.7877,-0.7875,-0.7869,-0.7868,-0.7867,-0.7867,0,0,0,0,0,0,0,-0.8031,-0.8027,-0.7989,-0.7984,-0.7981,-0.7971,-0.7966,-0.7957,-0.7925,-0.7941,-0.7938,-0.7933,-0.7897,-0.789,-0.7887,-0.7874,-0.7869,-0.7868,-0.7867,-0.7866,-0.7867,-0.7868,0,0,0,0,0,0,-0.8037,-0.8029,-0.799,-0.7988,-0.8003,-0.7971,-0.7965,-0.7958,-0.7925,-0.7919,-0.7934,-0.7931,-0.7892,-0.7889,-0.7885,-0.7892,-0.7867,-0.7866,-0.7866,-0.7866,-0.7867,-0.7868,0,0,0,0,0,0,-0.8039,-0.8034,-0.7992,-0.8008,-0.8001,-0.7971,-0.7963,-0.7957,-0.795,-0.792,-0.7914,-0.7932,-0.7891,-0.7887,-0.7881,-0.7889,-0.7866,-0.7865,-0.7865,-0.7866,-0.7867,-0.7904,0,0,0,0,0,0,-0.804,-0.8035,-0.8037,-0.8008,-0.8001,-0.7988,-0.7963,-0.7957,-0.7948,-0.7944,-0.7917,-0.7912,-0.7891,-0.7883,-0.788,-0.7887,-0.7864,-0.7864,-0.7866,-0.7867,-0.7902,-0.7906,-0.791,0,0,0,0,0,-0.8042,-0.8049,-0.8037,-0.8033,-0.8003,-0.7989,-0.7985,-0.796,-0.7949,-0.7951,-0.7932,-0.7912,-0.7889,-0.7883,-0.7879,-0.7886,-0.7864,-0.7865,-0.7867,-0.79,-0.7905,-0.791,0,0,0,0,0,0,-0.808,-0.8045,-0.8031,-0.8029,-0.8012,-0.7982,-0.7984,-0.7967,-0.7953,-0.795,-0.7921,-0.7915,-0.7913,-0.7899,-0.7892,-0.7892,-0.7874,-0.7875,-0.79,-0.7905,-0.7909,-0.7912,-0.7863,0,0,0,0,0,-0.8088,-0.808,-0.8049,-0.805,-0.8042,-0.8015,-0.8008,-0.7991,-0.7972,-0.7965,-0.7945,-0.7928,-0.7917,-0.791,-0.7899,-0.79,-0.7894,-0.7903,-0.7907,-0.7911,-0.7912,-0.7912,-0.7916,-0.7873,-0.7873,-0.7873,0,0,-0.8104,-0.8084,-0.8081,-0.8057,-0.8042,-0.8035,-0.8009,-0.8002,-0.7996,-0.7964,-0.7957,-0.7942,-0.7921,-0.7919,-0.7917,-0.7908,-0.7922,-0.7913,-0.7916,-0.7915,-0.7914,-0.7918,-0.7922,-0.7874,-0.7874,-0.7874,0,0,-0.813,-0.8114,-0.8113,-0.8099,-0.8077,-0.8058,-0.8058,-0.8031,-0.802,-0.8013,-0.7989,-0.7981,-0.7963,-0.7949,-0.794,-0.7962,-0.7944,-0.7959,-0.7979,-0.798,-0.7983,-0.7986,-0.7994,-0.7997,-0.796,-0.796,-0.796,0,-0.8154,-0.8141,-0.8115,-0.8109,-0.81,-0.8071,-0.807,-0.8057,-0.8032,-0.8027,-0.8016,-0.7993,-0.7977,-0.7971,-0.7977,-0.797,-0.7969,-0.7961,-0.7985,-0.7987,-0.799,-0.7997,-0.8,-0.7962,-0.7962,-0.7961,-0.7961,0,-0.8171,-0.8162,-0.8164,-0.8141,-0.8132,-0.8129,-0.8103,-0.8096,-0.808,-0.8063,-0.8057,-0.8036,-0.802,-0.8018,-0.8002,-0.801,-0.8005,-0.799,-0.7972,-0.7996,-0.8002,-0.8005,-0.7965,-0.7964,-0.7963,-0.7963,0,0,-0.8219,-0.8182,-0.8183,-0.8172,-0.8146,-0.8139,-0.8135,-0.8119,-0.8114,-0.8098,-0.8094,-0.808,-0.8066,-0.8056,-0.8038,-0.8038,-0.8057,-0.8023,-0.8023,-0.8031,-0.8066,-0.8077,-0.8081,-0.8046,-0.8046,-0.8046,-0.8068,0,-0.8241,-0.8231,-0.8208,-0.8205,-0.8197,-0.817,-0.8166,-0.815,-0.8134,-0.8126,-0.8108,-0.8098,-0.8081,-0.8074,-0.8074,-0.8055,-0.8064,-0.8054,-0.8042,-0.8042,-0.8048,-0.8084,-0.8096,-0.8117,-0.807,-0.807,-0.8071,0,-0.8265,-0.825,-0.8247,-0.8222,-0.8218,-0.8215,-0.8199,-0.819,-0.8172,-0.816,-0.8149,-0.813,-0.8124,-0.8108,-0.81,-0.8093,-0.8087,-0.8077,-0.8078,-0.8075,-0.8057,-0.8083,-0.8123,-0.8126,-0.8074,-0.8074,-0.8074,0,-0.83,-0.828,-0.8276,-0.8268,-0.8238,-0.8237,-0.8224,-0.8205,-0.8197,-0.8183,-0.8177,-0.8163,-0.8155,-0.8145,-0.8123,-0.8113,-0.8118,-0.8099,-0.8108,-0.8109,-0.811,-0.811,-0.815,-0.8106,-0.8106,-0.8106,-0.8106,0,-0.8327,-0.8326,-0.8292,-0.8289,-0.8288,-0.8261,-0.8261,-0.8246,-0.8229,-0.8223,-0.8198,-0.8194,-0.8164,-0.8156,-0.8139,-0.8135,-0.8132,-0.8123,-0.8118,-0.8125,-0.8126,-0.812,-0.8118,-0.8107,-0.8107,-0.8107,-0.8107,0,-0.8367,-0.8343,-0.8337,-0.8309,-0.8302,-0.8302,-0.8279,-0.8276,-0.8258,-0.8252,-0.8248,-0.8222,-0.8211,-0.8188,-0.8171,-0.8159,-0.816,-0.8151,-0.8166,-0.8163,-0.8174,-0.8173,-0.8211,-0.8214,-0.8169,-0.817,-0.817,0,-0.8385,-0.8384,-0.8356,-0.8351,-0.8339,-0.833,-0.8322,-0.8296,-0.8289,-0.8268,-0.8267,-0.8254,-0.8243,-0.8227,-0.8207,-0.8194,-0.8185,-0.8199,-0.8183,-0.819,-0.8185,-0.8186,-0.8185,-0.8203,-0.8203,-0.8204,-0.8204,0,-0.8421,-0.841,-0.8399,-0.8384,-0.8375,-0.8362,-0.8348,-0.8345,-0.8316,-0.8309,-0.8297,-0.8288,-0.8271,-0.8259,-0.8243,-0.8231,-0.8213,-0.8209,-0.8211,-0.8218,-0.8226,-0.8222,-0.8176,-0.8209,-0.8208,-0.8208,-0.8208,-0.8207,-0.8451,-0.8449,-0.8429,-0.8418,-0.8404,-0.8392,-0.8387,-0.8369,-0.836,-0.8343,-0.8329,-0.8319,-0.8301,-0.8277,-0.8266,-0.8259,-0.825,-0.8252,-0.8252,-0.8253,-0.8256,-0.8228,-0.8256,-0.8255,-0.8255,-0.8255,-0.8255,0,-0.8486,-0.8472,-0.8461,-0.8442,-0.8434,-0.8417,-0.8401,-0.8395,-0.8386,-0.8371,-0.836,-0.8347,-0.8336,-0.8314,-0.8301,-0.8299,-0.829,-0.8296,-0.8296,-0.8294,-0.8265,-0.8265,-0.8303,-0.8303,-0.8303,-0.8303,-0.8303,-0.8303,-0.8503,-0.8498,-0.8485,-0.8473,-0.8459,-0.8449,-0.8441,-0.843,-0.8417,-0.8404,-0.8394,-0.838,-0.8362,-0.8347,-0.8336,-0.833,-0.8326,-0.8335,-0.8327,-0.83,-0.8296,-0.8291,-0.8291,-0.8334,-0.8334,-0.8356,-0.8356,-0.8356]},{"header":{"parameterUnit":"m.s-1","parameterCategory":1,"la1":30.2991,"la2":30.254,"lo1":-89.0895,"lo2":-89.0444,"dy":0.0017,"dx":0.0017,"nx":28,"ny":28,"refTime":"2024-06-15T03:00:00:Z","depth":0,"parameterNumber":3,"parameterNumberName":"V-component_of_WINDS"},"data":[0,0,0,0,0,0,0,0,0,0,0,0,0,0,0,0,0,0,0,0,0,0,0,0,0,0,0,0,0,0,0,0,0,0,0,0,0,0,0,0,0,0,0,0,0,0,0,0,0,0,0,0,0,0,0,0,0,0,4.5377,4.5378,0,4.5434,4.5434,4.5435,4.5456,4.5456,4.5456,4.5455,4.5509,4.5511,4.5512,0,0,0,0,0,0,0,0,0,0,0,0,0,4.5286,4.5288,4.5377,4.5378,4.5379,4.5433,4.5434,4.5435,4.5456,4.5456,4.5456,4.5455,4.5509,4.551,4.5512,0,0,0,0,0,0,0,0,0,0,0,0,0,4.5332,4.5288,4.5377,4.5396,4.5398,4.5433,4.5434,4.5435,4.5456,4.5456,4.5456,4.5455,4.5508,4.551,4.5513,4.5532,0,0,4.552,4.5521,0,0,0,0,0,0,0,0,4.533,4.5336,4.5393,4.5395,4.5397,4.5438,4.5422,4.5468,4.5456,4.5434,4.5455,4.5455,4.5485,4.5489,4.55,4.5535,4.5537,4.552,4.5521,4.5522,4.5523,0,0,0,0,0,0,0,4.5326,4.5333,4.54,4.5393,4.5396,4.5401,4.5407,4.5431,4.546,4.5436,4.5438,4.5444,4.5486,4.5498,4.5502,4.5538,4.552,4.5522,4.5524,4.5524,4.5592,4.5592,0,0,0,0,0,0,4.5321,4.5331,4.5398,4.5401,4.5362,4.5403,4.541,4.5425,4.546,4.5465,4.5444,4.5445,4.5494,4.5499,4.5504,4.553,4.5522,4.5525,4.5526,4.5592,4.5592,4.5593,0,0,0,0,0,0,4.5319,4.5326,4.5395,4.5366,4.5376,4.5405,4.5421,4.5426,4.5438,4.5466,4.5471,4.5451,4.5494,4.55,4.5525,4.5532,4.5526,4.5528,4.5591,4.5592,4.5592,4.5581,0,0,0,0,0,0,4.5316,4.5326,4.5334,4.5367,4.5377,4.5417,4.5422,4.5427,4.5442,4.5444,4.5474,4.5479,4.5494,4.5522,4.5528,4.5535,4.553,4.5591,4.5591,4.5592,4.5581,4.5581,4.5581,0,0,0,0,0,4.5312,4.5327,4.5334,4.5342,4.5388,4.5417,4.5423,4.5442,4.5443,4.5451,4.547,4.5478,4.553,4.5524,4.5531,4.5539,4.559,4.5591,4.5592,4.5581,4.5581,4.5581,0,0,0,0,0,0,4.5292,4.5332,4.534,4.5365,4.5388,4.5421,4.5431,4.5442,4.5463,4.5463,4.5485,4.5492,4.5515,4.553,4.5522,4.556,4.5561,4.5563,4.555,4.555,4.5551,4.5546,4.5532,0,0,0,0,0,4.5291,4.5312,4.5345,4.5365,4.5376,4.5402,4.5415,4.5428,4.5452,4.5461,4.5482,4.5503,4.5525,4.5539,4.556,4.5584,4.5591,4.5592,4.5593,4.5593,4.5594,4.5608,4.561,4.5595,4.5595,4.5595,0,0,4.5288,4.5312,4.5324,4.5361,4.538,4.5402,4.5409,4.5431,4.5447,4.5464,4.5489,4.5505,4.5531,4.5556,4.5568,4.5569,4.56,4.5594,4.5594,4.5595,4.5609,4.5611,4.5612,4.5596,4.5596,4.5596,0,0,4.5294,4.5314,4.5333,4.5353,4.5382,4.54,4.5405,4.5436,4.5448,4.5474,4.5488,4.5507,4.5543,4.5562,4.5576,4.5591,4.5599,4.5597,4.5598,4.5611,4.5612,4.5614,4.5619,4.5621,4.5599,4.5599,4.5599,0,4.5286,4.5319,4.5341,4.5363,4.5379,4.5398,4.5417,4.5435,4.5469,4.548,4.5481,4.5528,4.5547,4.5577,4.5581,4.5591,4.5597,4.5593,4.5611,4.5612,4.5613,4.5619,4.5621,4.5598,4.5598,4.5598,4.5598,0,4.5309,4.5332,4.5343,4.5378,4.5396,4.5416,4.5441,4.5456,4.5468,4.5485,4.5512,4.5536,4.5563,4.5571,4.5582,4.5602,4.5602,4.5607,4.5607,4.5614,4.562,4.5622,4.5597,4.5598,4.5598,4.5598,0,0,4.5301,4.535,4.5354,4.5371,4.5405,4.5423,4.5445,4.5473,4.5485,4.5509,4.5527,4.5559,4.5564,4.558,4.5594,4.5606,4.5617,4.5609,4.561,4.561,4.5641,4.5638,4.564,4.5623,4.5624,4.5624,4.5639,0,4.5312,4.5352,4.5374,4.5404,4.5426,4.5445,4.5464,4.5487,4.5504,4.5525,4.5543,4.5566,4.557,4.558,4.5593,4.5613,4.5623,4.5612,4.564,4.5641,4.5632,4.5643,4.5638,4.5651,4.5642,4.5642,4.5642,0,4.5329,4.5354,4.5388,4.5422,4.5432,4.5448,4.5476,4.5496,4.5523,4.5534,4.5554,4.5567,4.559,4.559,4.5622,4.5614,4.5627,4.5638,4.5639,4.5642,4.5641,4.5645,4.5656,4.5658,4.5646,4.5646,4.5645,0,4.532,4.5363,4.5389,4.5402,4.5442,4.5454,4.5471,4.5498,4.5514,4.5538,4.5549,4.5575,4.5589,4.5609,4.563,4.5628,4.566,4.5661,4.567,4.5669,4.5675,4.5674,4.5687,4.5683,4.5683,4.5683,4.5683,0,4.5329,4.5349,4.5386,4.5402,4.5425,4.5449,4.5471,4.5489,4.5514,4.5533,4.5551,4.5568,4.5595,4.5615,4.5632,4.5656,4.5662,4.5672,4.5676,4.567,4.5669,4.5678,4.5678,4.5684,4.5684,4.5684,4.5684,0,4.5323,4.5349,4.5379,4.5415,4.5425,4.544,4.5471,4.5487,4.5506,4.553,4.5537,4.5566,4.5592,4.5615,4.5648,4.5659,4.5684,4.5689,4.5675,4.5677,4.5685,4.5684,4.5704,4.5708,4.5702,4.5702,4.5702,0,4.5327,4.5344,4.5383,4.5398,4.5415,4.5439,4.5456,4.5481,4.5498,4.5531,4.5543,4.557,4.5593,4.5633,4.5657,4.5683,4.5688,4.5694,4.5692,4.5686,4.5688,4.5687,4.5689,4.5693,4.5693,4.5693,4.5693,0,4.5332,4.5344,4.5369,4.5399,4.5419,4.5443,4.5467,4.5478,4.5508,4.5526,4.5554,4.5572,4.5607,4.5634,4.5663,4.568,4.5691,4.5694,4.5697,4.5691,4.5683,4.5687,4.5675,4.5693,4.5693,4.5693,4.5693,4.5693,4.5331,4.5347,4.5377,4.5405,4.5426,4.5449,4.5466,4.5488,4.5512,4.5544,4.5557,4.5585,4.5612,4.5653,4.567,4.5691,4.5693,4.5698,4.5699,4.57,4.5699,4.568,4.5697,4.5697,4.5697,4.5697,4.5697,0,4.5337,4.5358,4.5383,4.5418,4.5439,4.545,4.5478,4.5495,4.552,4.5545,4.5568,4.56,4.5627,4.5653,4.5681,4.5693,4.5699,4.57,4.5699,4.5703,4.5695,4.569,4.5695,4.5695,4.5695,4.5695,4.5695,4.5695,4.5342,4.537,4.5386,4.5424,4.5445,4.5474,4.5489,4.551,4.553,4.5566,4.5588,4.5606,4.5632,4.5662,4.5687,4.5694,4.5703,4.5702,4.5711,4.5703,4.5703,4.5703,4.5698,4.5704,4.5704,4.5716,4.5716,4.5716]}]]